Location: Marcé
(47.5801°N, 0.3280°W)
Time: 09:48:42
(UTC+01:00)

Tiros 1 despin weight - Pass Details

Date: 13 December 2021
Orbit: 592 x 641 km, 48.2° (Epoch: 25 January)

Event Time Altitude Azimuth Distance (km) Brightness Sun altitude
Rises 13:42:28 0° 275° (W) 2,852 ? 18.5°
Reaches altitude 10° 13:44:46 10° 276° (W) 1,941 ? 18.4°
Maximum altitude 13:49:14 84° 5° (N) 604 ? 18.2°
Drops below altitude 10° 13:53:39 10° 94° (E) 1,923 ? 18.0°
Sets 13:55:55 0° 95° (E) 2,822 ? 17.9°
